SCP
-0 -0 -0 -0 -0 -0 -0 -0 -0 0 -0 -0 -0 -0 -0 0 0 0 0 0 0 0 0 0 0 0 0 0 0 0 0 0 0 0 0 0 0 0 0 0 0 0 0 0 0
-0 -0 -0 -0 -0 -0 -0 -0 0 0 0 -0 0 -0 -0 0 0 0 0 0 0 0 0 0 0 0 0 0 0 0 0 0 0 0 0 0 0 0 0 0 0 0 0 0 0
-0 -0 -0 -0 -0 -0 0 0 -0 0 0 0 0 -0 0 -0 0 0 0 -0 0 -0 0 0 0 0 0 0 0 0 0 0 0 0 0 0 0 0 0 0 0 0 0 0 0
0 0 -0 -0 -0 -0 0 0 0 0 0 0 -0 -0 0 -0 0 0 0 -0 0 0 0 0 0 0 0 0 0 0 0 0 0 0 0 0 0 0 0 0 0 0 0 0 0
0 0 0 0 -0 -0 0 0 0 0 0 0 0 0 -0 0 0 0 -0 -0 0 0 0 0 0 0 0 0 0 0 0 0 0 0 0 0 0 0 0 0 0 0 0 0 0
0 0 -0 0 0 -0 -0 -0 0 0 0 0 0 0 0 -0 0 0 -0 -0 0 0 0 0 0 0 0 0 0 0 0 0 0 0 0 0 0 0 0 0 0 0 0 0 0
0 0 -0 0 0 0 -0 -0 -0 -0 -0 -0 -0 -0 -0 0 0 0 -0 -0 -0 0 0 0 0 0 0 0 0 0 0 0 0 0 0 0 0 0 0 0 0 0 0 0 0
0 -0 -0 0 0 0 0 -0 -0 -0 -0 -0 -0 -0 -0 -0 0 0 -0 0 0 0 0 0 0 0 0 0 0 0 0 0 0 0 0 0 0 0 0 0 0 0 0 0 0
0 -0 -0 0 -0 -0 -0 0 -0 0 -0 -0 -0 -0 -0 0 0 -0 0 0 0 0 0 0 0 0 0 0 0 0 0 0 0 0 0 0 0 0 0 0 0 0 0 0 0
0 0 -0 0 0 0 0 0 0 -0 0 0 0 0 -0 -0 -0 0 0 0 0 0 0 0 0 0 0 0 0 0 0 0 0 0 0 0 0 0 0 0 0 0 0 0 0
0 0 -0 -0 0 -0 0 0 0 0 0 0 0 0 0 0 0 0 0 0 0 0 0 0 0 0 0 0 0 0 0 0 0 0 0 0 0 0 0 0 0 0 0 0 0
-0 -0 0 -0 -0 -0 0 0 0 0 0 0 -0 -0 0 0 0 0 0 0 0 0 0 0 0 0 0 0 0 0 0 0 0 0 0 0 0 0 0 0 0 0 0 0 0
-0 -0 -0 -0 -0 0 0 0 0 0 0 0 0 0 0 0 0 0 -0 -0 0 0 0 0 0 0 0 0 0 0 0 0 0 0 0 0 0 0 0 0 0 0 0 0 0
-0 -0 0 -0 -0 0 0 0 -0 0 0 0 0 0 0 0 0 0 -0 0 0 0 0 0 0 0 0 0 0 0 0 0 0 0 0 0 -0 0 0 0 0 0 0 0 0
-0 -0 -0 0 -0 0 0 -0 -0 -0 0 0 0 0 -0 0 0 0 -0 -0 0 0 0 0 0 0 0 0 0 0 0 0 0 0 0 0 0 0 0 0 0 0 0 0 0
-0 -0 -0 0 0 -0 -0 -0 -0 0 0 0 0 0 0 0 0 0 0 0 0 0 0 0 0 0 0 0 0 0 0 0 0 0 0 0 0 0 0 0 0 0 0 0 0
-0 -0 -0 -0 -0 -0 -0 -0 0 0 0 0 0 0 0 0 0 0 0 0 0 0 0 0 0 0 0 0 0 0 0 0 0 0 0 0 0 0 0 0 0 0 0 0 0
-0 -0 0 0 -0 -0 0 0 -0 0 0 0 0 0 0 0 0 0 0 0 0 0 0 0 0 0 0 0 0 0 0 0 0 0 0 0 0 0 0 0 0 0 0 0 0
-0 0 0 0 0 0 -0 -0 0 0 0 0 0 0 0 0 0 0 0 0 0 0 0 0 0 0 0 0 0 0 0 0 0 0 0 0 0 0 0 0 0 0 0 0 0
0 0 0 0 0 -0 0 0 0 0 0 0 0 0 0 0 0 0 0 0 0 0 0 0 0 0 0 0 0 0 0 0 0 0 0 0 0 0 0 0 0 0 0 0 0
0 0 0 -0 0 0 0 0 0 0 0 0 0 0 0 0 0 0 0 0 0 0 0 0 0 0 0 0 0 0 0 0 0 0 0 0 0 0 0 0 0 0 0 0 0
0 0 0 0 0 0 0 0 0 0 0 0 0 0 0 0 0 0 0 0 0 0 0 0 0 0 0 0 0 0 0 0 0 0 0 0 0 0 0 0 0 0 0 0 0
0 0 0 0 0 0 0 0 0 0 0 0 0 0 0 0 0 0 0 0 0 0 0 0 0 0 0 0 0 0 0 0 0 0 0 0 0 0 0 0 0 0 0 0 0
0 0 0 0 0 0 0 0 0 0 0 0 0 0 0 0 0 0 0 0 0 0 0 0 0 0 0 0 0 0 0 0 0 0 0 0 0 0 0 0 0 0 0 0 0
0 0 0 0 0 0 0 0 0 0 0 0 0 0 0 0 0 0 0 0 0 0 0 0 0 0 0 0 0 0 0 0 0 0 0 -0 -0 -0 0 0 0 0 0 0 0
0 0 0 0 0 0 0 0 0 0 0 0 0 0 0 0 0 0 0 0 0 0 0 0 0 0 0 0 0 0 0 0 0 -0 -0 -0 -0 0 0 0 0 0 0 0 0
0 0 0 0 0 0 0 0 0 0 0 0 0 0 0 0 0 0 0 0 0 0 0 0 0 0 0 0 0 0 0 0 0 -0 -0 0 -0 -0 -0 -0 0 0 0 -0 -0
Wind_Speed_500mb
47 41 37 34 30 26 24 22 19 21 18 13 17 16 24 24 20 20 29 19 31 15 18 20 32 31 24 23 19 17 19 27 35 26 27 18 20 14 13 25 24 26 27 22 22
49 43 39 36 33 27 24 21 19 17 17 13 14 16 17 24 26 30 7 20 22 33 21 26 36 38 32 26 20 26 24 33 13 17 17 24 25 27 25 30 30 33 36 32 25
56 47 42 37 33 30 25 23 20 15 16 15 13 16 16 17 13 1 8 19 28 40 23 21 29 34 26 24 24 25 26 21 21 31 31 33 29 31 30 31 35 35 32 31 34
54 57 49 42 32 29 26 23 20 18 14 16 13 12 13 7 3 9 6 23 31 35 27 25 31 28 23 23 28 18 29 25 26 28 30 35 34 32 31 35 33 37 37 35 37
54 54 53 48 39 29 24 20 19 19 16 13 13 8 8 10 3 6 20 25 44 30 27 27 30 24 22 24 21 27 16 21 28 27 28 32 36 34 36 29 32 28 30 32 34
55 56 54 49 46 34 24 17 18 19 18 13 10 9 4 11 5 13 21 24 23 23 22 20 17 15 14 17 27 16 13 19 21 26 24 26 36 31 20 17 28 29 29 29 31
55 58 59 56 47 40 28 20 18 22 18 15 8 8 11 7 9 17 21 13 22 20 23 16 15 17 21 15 13 14 18 20 26 28 21 19 32 36 29 25 23 25 26 31 33
59 60 59 61 53 46 29 24 22 24 18 13 8 6 9 13 16 19 19 13 21 18 17 14 10 10 10 12 14 19 14 23 18 13 14 12 25 13 6 19 24 32 33 31 34
59 58 57 56 58 45 38 23 21 18 16 9 3 1 4 13 14 19 21 17 19 14 9 13 8 8 16 21 17 17 21 15 8 16 13 20 21 8 19 37 35 34 36 34 30
53 55 55 55 61 46 37 19 19 13 6 2 10 8 9 15 17 19 22 18 21 20 14 15 15 18 17 18 19 11 20 17 19 7 17 27 33 31 29 32 35 34 34 32 34
53 52 56 56 63 46 29 11 4 7 15 17 3 4 13 10 13 16 26 23 21 25 23 20 19 21 19 15 14 12 17 22 18 21 26 29 31 31 36 39 39 39 36 38 43
54 56 59 56 60 41 12 10 6 7 15 20 22 24 18 9 16 23 29 30 24 26 18 15 25 14 8 13 17 22 24 24 21 19 20 31 36 35 37 43 41 41 43 48 48
58 58 59 52 47 15 7 13 8 11 11 4 9 8 17 23 13 27 36 36 24 26 23 25 13 11 12 18 20 23 23 22 26 27 29 39 36 33 26 25 33 41 46 48 52
59 58 58 50 15 15 6 15 8 10 9 10 8 8 17 18 13 20 30 24 14 21 18 17 18 18 17 16 19 23 10 17 26 28 28 29 34 34 31 30 30 37 42 40 49
62 63 55 36 18 2 5 8 8 3 8 8 10 10 19 18 13 14 29 21 19 13 14 10 12 16 19 16 7 25 10 23 30 34 38 38 31 30 32 31 29 29 35 47 48
75 50 29 9 3 12 9 2 3 12 5 8 10 11 17 17 6 12 18 20 8 22 23 28 9 14 17 5 13 13 26 33 34 28 28 30 22 13 22 32 34 36 42 37 31
60 30 11 11 6 11 2 4 9 8 4 6 7 7 11 11 12 11 17 18 19 16 26 27 27 21 12 25 19 20 25 21 22 21 25 14 22 24 27 20 29 21 23 24 24
32 20 18 15 13 2 4 9 9 3 5 4 2 6 8 3 9 3 8 16 10 14 19 16 21 7 6 18 23 7 15 15 18 21 31 35 15 4 23 3 11 13 19 23 27
15 13 17 10 6 7 11 10 6 4 8 9 8 14 12 8 5 8 7 12 4 11 13 9 13 8 2 3 7 11 17 12 19 31 25 21 19 17 11 6 9 19 20 23 27
14 8 18 4 7 7 9 6 3 7 11 7 11 6 11 14 9 7 8 12 9 11 8 8 22 10 9 9 8 17 8 9 12 9 14 16 29 19 7 15 20 21 32 33 34
11 3 19 2 10 11 7 6 2 4 13 10 10 18 12 9 19 17 13 12 16 13 14 11 11 9 8 21 19 13 18 12 8 8 9 17 13 12 22 25 14 23 39 36 34
13 4 22 2 11 3 4 6 5 6 10 14 11 11 18 20 29 28 27 19 10 14 20 13 9 19 22 6 10 19 21 21 15 18 16 23 34 11 19 19 23 48 42 40 36
18 9 15 5 5 2 5 8 9 12 10 10 10 10 13 18 12 23 23 17 18 16 9 12 12 16 18 15 13 16 18 18 22 20 28 25 26 11 21 34 39 40 38 35 39
10 4 8 16 11 10 12 11 11 4 12 14 18 14 19 20 24 12 12 15 12 16 12 11 24 22 20 23 7 18 21 24 28 26 32 33 45 38 34 36 37 42 34 40 43
12 6 7 6 5 13 10 9 17 11 5 11 9 12 12 10 20 28 29 25 16 18 22 11 28 29 32 32 29 32 33 34 39 40 39 43 45 42 39 30 35 42 48 53 54
10 7 6 4 9 11 1 2 14 6 5 7 10 19 8 14 19 18 16 18 18 11 20 14 22 25 29 31 33 40 41 42 41 41 44 44 45 40 28 39 48 50 51 55 62
3 2 6 5 3 8 2 6 8 13 15 19 8 12 19 24 23 34 34 31 29 23 17 20 15 18 25 15 20 27 33 23 23 24 29 32 31 34 37 38 46 50 63 71 76
Wind_Direction_500mb
6 4 1 355 351 348 339 330 327 317 306 300 291 287 292 285 276 269 252 222 214 203 183 174 183 188 183 196 201 206 234 236 224 229 241 253 253 199 271 275 269 267 272 283 307
11 6 3 1 357 356 352 343 335 330 314 300 296 294 295 298 293 268 227 201 193 192 157 163 174 175 184 195 192 209 225 235 245 235 240 240 257 274 280 268 266 264 271 275 285
17 13 6 2 359 355 357 350 345 340 323 305 299 303 303 314 285 226 236 190 178 175 168 167 170 175 177 186 189 208 240 230 236 245 254 265 265 263 265 264 268 275 275 275 277
16 16 10 360 354 353 350 357 351 346 343 319 306 306 307 312 1 327 200 170 166 161 158 154 166 179 186 193 189 211 232 242 247 254 250 261 270 266 258 264 270 273 273 272 270
9 7 7 5 350 343 345 344 356 352 345 338 317 306 305 260 283 59 115 135 153 156 164 169 178 188 197 190 183 226 211 229 244 251 255 266 262 267 268 270 269 270 272 270 266
8 4 358 355 356 336 330 333 333 337 339 334 330 311 321 243 169 132 134 140 162 159 168 175 189 202 166 177 210 188 223 228 243 251 252 257 269 259 253 250 266 274 272 271 268
358 355 355 349 346 345 315 314 319 323 320 320 323 318 270 288 184 155 152 158 169 165 161 163 161 188 161 166 175 183 228 222 243 249 258 287 263 251 251 262 265 269 273 274 266
340 343 342 346 339 341 320 297 305 312 303 296 302 326 256 223 183 168 170 156 159 153 153 153 155 162 221 121 182 220 240 245 162 228 222 239 267 263 285 275 270 278 279 276 271
329 334 336 336 337 332 329 292 297 300 296 275 278 250 175 208 191 189 175 170 169 169 151 155 185 209 187 213 210 200 253 218 245 198 259 234 283 292 271 288 282 279 279 276 272
329 329 332 332 333 327 324 291 298 296 261 261 237 243 201 165 173 173 179 162 168 162 162 197 208 219 217 220 239 222 232 212 254 224 249 270 271 274 277 283 283 286 280 275 275
329 329 328 331 330 323 309 272 309 219 218 248 250 324 156 156 165 182 180 170 174 197 209 206 227 219 221 225 290 258 259 261 269 272 274 274 279 282 283 284 280 277 274 271 273
329 328 324 328 328 322 272 208 278 314 293 256 250 241 229 169 169 172 177 187 198 211 205 201 231 256 238 223 230 241 252 258 269 260 272 280 279 285 279 274 276 273 276 278 277
328 327 323 325 327 334 223 218 242 327 267 217 203 206 199 193 190 174 180 203 207 218 210 251 87 95 180 198 228 233 257 277 288 303 276 265 281 277 268 252 256 269 274 272 273
331 327 322 324 333 320 262 215 263 305 264 125 167 150 166 177 214 194 193 194 208 226 210 245 231 235 239 240 236 266 277 270 286 290 290 325 290 282 283 283 282 284 289 280 285
336 326 314 315 297 233 200 202 285 237 210 118 104 148 165 195 119 184 196 211 239 192 224 118 174 208 241 265 252 276 326 289 294 288 292 283 279 290 293 286 301 324 315 304 297
341 326 323 337 58 167 173 266 189 230 125 111 124 145 165 192 129 123 187 215 265 244 229 270 263 276 290 335 266 306 275 277 275 271 269 276 278 295 310 332 317 320 303 313 337
348 358 24 108 130 149 194 203 224 280 173 107 103 169 185 157 199 237 191 201 229 224 239 241 239 240 251 259 210 249 269 275 271 240 263 0 302 282 320 358 325 319 327 325 322
1 35 69 118 136 106 206 238 253 67 26 31 266 158 176 162 106 322 238 231 216 262 279 282 273 184 148 255 285 266 301 276 287 286 306 315 265 270 339 218 337 336 332 335 332
12 46 37 96 100 27 251 243 20 25 347 316 257 236 171 159 259 314 264 292 307 218 242 257 247 115 179 222 266 160 246 357 293 271 261 257 250 264 97 204 329 332 332 334 327
359 31 13 75 9 336 255 357 139 37 324 281 276 302 242 191 238 183 237 297 296 263 245 251 270 172 132 220 209 267 66 242 222 281 284 297 305 291 309 353 329 329 335 326 324
25 257 354 318 348 266 289 52 193 30 357 318 314 286 254 236 230 207 230 223 232 232 246 257 244 168 206 211 257 181 221 219 280 243 281 298 293 53 312 299 295 298 327 314 318
8 239 354 358 255 301 304 353 347 290 307 288 272 277 286 279 255 247 242 245 274 294 250 230 274 265 265 75 297 277 268 240 225 239 228 281 284 327 346 334 289 296 315 312 310
346 319 352 33 302 320 338 282 297 310 320 311 294 288 265 267 278 247 237 237 228 229 254 192 240 253 217 196 206 239 218 243 231 257 260 271 271 296 278 311 312 312 306 304 306
348 303 39 52 56 343 340 291 276 306 294 296 290 271 267 256 244 264 243 197 214 240 351 268 254 253 263 316 163 239 240 238 239 244 266 261 279 290 297 307 319 311 309 301 302
20 57 15 346 24 344 304 304 292 304 322 323 281 282 314 266 269 244 238 242 251 231 261 273 251 250 262 272 278 268 261 259 249 256 261 278 287 297 298 319 305 301 297 302 303
355 348 328 331 327 332 293 345 314 341 284 280 278 312 316 279 288 301 295 247 248 267 233 226 264 268 270 266 263 269 267 262 262 265 267 274 280 278 293 300 303 309 308 302 300
339 83 326 130 349 302 340 348 314 330 285 276 328 331 295 284 287 279 278 261 266 275 276 247 247 240 267 268 287 269 264 263 274 273 274 273 296 319 303 318 310 305 302 299 299
Wind_Speed_850mb
47 41 37 34 30 26 24 22 19 21 18 13 17 16 24 24 20 20 29 19 31 15 18 20 32 31 24 23 19 17 19 27 35 26 27 18 20 14 13 25 24 26 27 22 22
49 43 39 36 33 27 24 21 19 17 17 13 14 16 17 24 26 30 7 20 22 33 21 26 36 38 32 26 20 26 24 33 13 17 17 24 25 27 25 30 30 33 36 32 25
56 47 42 37 33 30 25 23 20 15 16 15 13 16 16 17 13 1 8 19 28 40 23 21 29 34 26 24 24 25 26 21 21 31 31 33 29 31 30 31 35 35 32 31 34
54 57 49 42 32 29 26 23 20 18 14 16 13 12 13 7 3 9 6 23 31 35 27 25 31 28 23 23 28 18 29 25 26 28 30 35 34 32 31 35 33 37 37 35 37
54 54 53 48 39 29 24 20 19 19 16 13 13 8 8 10 3 6 20 25 44 30 27 27 30 24 22 24 21 27 16 21 28 27 28 32 36 34 36 29 32 28 30 32 34
55 56 54 49 46 34 24 17 18 19 18 13 10 9 4 11 5 13 21 24 23 23 22 20 17 15 14 17 27 16 13 19 21 26 24 26 36 31 20 17 28 29 29 29 31
55 58 59 56 47 40 28 20 18 22 18 15 8 8 11 7 9 17 21 13 22 20 23 16 15 17 21 15 13 14 18 20 26 28 21 19 32 36 29 25 23 25 26 31 33
59 60 59 61 53 46 29 24 22 24 18 13 8 6 9 13 16 19 19 13 21 18 17 14 10 10 10 12 14 19 14 23 18 13 14 12 25 13 6 19 24 32 33 31 34
59 58 57 56 58 45 38 23 21 18 16 9 3 1 4 13 14 19 21 17 19 14 9 13 8 8 16 21 17 17 21 15 8 16 13 20 21 8 19 37 35 34 36 34 30
53 55 55 55 61 46 37 19 19 13 6 2 10 8 9 15 17 19 22 18 21 20 14 15 15 18 17 18 19 11 20 17 19 7 17 27 33 31 29 32 35 34 34 32 34
53 52 56 56 63 46 29 11 4 7 15 17 3 4 13 10 13 16 26 23 21 25 23 20 19 21 19 15 14 12 17 22 18 21 26 29 31 31 36 39 39 39 36 38 43
54 56 59 56 60 41 12 10 6 7 15 20 22 24 18 9 16 23 29 30 24 26 18 15 25 14 8 13 17 22 24 24 21 19 20 31 36 35 37 43 41 41 43 48 48
58 58 59 52 47 15 7 13 8 11 11 4 9 8 17 23 13 27 36 36 24 26 23 25 13 11 12 18 20 23 23 22 26 27 29 39 36 33 26 25 33 41 46 48 52
59 58 58 50 15 15 6 15 8 10 9 10 8 8 17 18 13 20 30 24 14 21 18 17 18 18 17 16 19 23 10 17 26 28 28 29 34 34 31 30 30 37 42 40 49
62 63 55 36 18 2 5 8 8 3 8 8 10 10 19 18 13 14 29 21 19 13 14 10 12 16 19 16 7 25 10 23 30 34 38 38 31 30 32 31 29 29 35 47 48
75 50 29 9 3 12 9 2 3 12 5 8 10 11 17 17 6 12 18 20 8 22 23 28 9 14 17 5 13 13 26 33 34 28 28 30 22 13 22 32 34 36 42 37 31
60 30 11 11 6 11 2 4 9 8 4 6 7 7 11 11 12 11 17 18 19 16 26 27 27 21 12 25 19 20 25 21 22 21 25 14 22 24 27 20 29 21 23 24 24
32 20 18 15 13 2 4 9 9 3 5 4 2 6 8 3 9 3 8 16 10 14 19 16 21 7 6 18 23 7 15 15 18 21 31 35 15 4 23 3 11 13 19 23 27
15 13 17 10 6 7 11 10 6 4 8 9 8 14 12 8 5 8 7 12 4 11 13 9 13 8 2 3 7 11 17 12 19 31 25 21 19 17 11 6 9 19 20 23 27
14 8 18 4 7 7 9 6 3 7 11 7 11 6 11 14 9 7 8 12 9 11 8 8 22 10 9 9 8 17 8 9 12 9 14 16 29 19 7 15 20 21 32 33 34
11 3 19 2 10 11 7 6 2 4 13 10 10 18 12 9 19 17 13 12 16 13 14 11 11 9 8 21 19 13 18 12 8 8 9 17 13 12 22 25 14 23 39 36 34
13 4 22 2 11 3 4 6 5 6 10 14 11 11 18 20 29 28 27 19 10 14 20 13 9 19 22 6 10 19 21 21 15 18 16 23 34 11 19 19 23 48 42 40 36
18 9 15 5 5 2 5 8 9 12 10 10 10 10 13 18 12 23 23 17 18 16 9 12 12 16 18 15 13 16 18 18 22 20 28 25 26 11 21 34 39 40 38 35 39
10 4 8 16 11 10 12 11 11 4 12 14 18 14 19 20 24 12 12 15 12 16 12 11 24 22 20 23 7 18 21 24 28 26 32 33 45 38 34 36 37 42 34 40 43
12 6 7 6 5 13 10 9 17 11 5 11 9 12 12 10 20 28 29 25 16 18 22 11 28 29 32 32 29 32 33 34 39 40 39 43 45 42 39 30 35 42 48 53 54
10 7 6 4 9 11 1 2 14 6 5 7 10 19 8 14 19 18 16 18 18 11 20 14 22 25 29 31 33 40 41 42 41 41 44 44 45 40 28 39 48 50 51 55 62
3 2 6 5 3 8 2 6 8 13 15 19 8 12 19 24 23 34 34 31 29 23 17 20 15 18 25 15 20 27 33 23 23 24 29 32 31 34 37 38 46 50 63 71 76
Wind_Direction_850mb
6 4 1 355 351 348 339 330 327 317 306 300 291 287 292 285 276 269 252 222 214 203 183 174 183 188 183 196 201 206 234 236 224 229 241 253 253 199 271 275 269 267 272 283 307
11 6 3 1 357 356 352 343 335 330 314 300 296 294 295 298 293 268 227 201 193 192 157 163 174 175 184 195 192 209 225 235 245 235 240 240 257 274 280 268 266 264 271 275 285
17 13 6 2 359 355 357 350 345 340 323 305 299 303 303 314 285 226 236 190 178 175 168 167 170 175 177 186 189 208 240 230 236 245 254 265 265 263 265 264 268 275 275 275 277
16 16 10 360 354 353 350 357 351 346 343 319 306 306 307 312 1 327 200 170 166 161 158 154 166 179 186 193 189 211 232 242 247 254 250 261 270 266 258 264 270 273 273 272 270
9 7 7 5 350 343 345 344 356 352 345 338 317 306 305 260 283 59 115 135 153 156 164 169 178 188 197 190 183 226 211 229 244 251 255 266 262 267 268 270 269 270 272 270 266
8 4 358 355 356 336 330 333 333 337 339 334 330 311 321 243 169 132 134 140 162 159 168 175 189 202 166 177 210 188 223 228 243 251 252 257 269 259 253 250 266 274 272 271 268
358 355 355 349 346 345 315 314 319 323 320 320 323 318 270 288 184 155 152 158 169 165 161 163 161 188 161 166 175 183 228 222 243 249 258 287 263 251 251 262 265 269 273 274 266
340 343 342 346 339 341 320 297 305 312 303 296 302 326 256 223 183 168 170 156 159 153 153 153 155 162 221 121 182 220 240 245 162 228 222 239 267 263 285 275 270 278 279 276 271
329 334 336 336 337 332 329 292 297 300 296 275 278 250 175 208 191 189 175 170 169 169 151 155 185 209 187 213 210 200 253 218 245 198 259 234 283 292 271 288 282 279 279 276 272
329 329 332 332 333 327 324 291 298 296 261 261 237 243 201 165 173 173 179 162 168 162 162 197 208 219 217 220 239 222 232 212 254 224 249 270 271 274 277 283 283 286 280 275 275
329 329 328 331 330 323 309 272 309 219 218 248 250 324 156 156 165 182 180 170 174 197 209 206 227 219 221 225 290 258 259 261 269 272 274 274 279 282 283 284 280 277 274 271 273
329 328 324 328 328 322 272 208 278 314 293 256 250 241 229 169 169 172 177 187 198 211 205 201 231 256 238 223 230 241 252 258 269 260 272 280 279 285 279 274 276 273 276 278 277
328 327 323 325 327 334 223 218 242 327 267 217 203 206 199 193 190 174 180 203 207 218 210 251 87 95 180 198 228 233 257 277 288 303 276 265 281 277 268 252 256 269 274 272 273
331 327 322 324 333 320 262 215 263 305 264 125 167 150 166 177 214 194 193 194 208 226 210 245 231 235 239 240 236 266 277 270 286 290 290 325 290 282 283 283 282 284 289 280 285
336 326 314 315 297 233 200 202 285 237 210 118 104 148 165 195 119 184 196 211 239 192 224 118 174 208 241 265 252 276 326 289 294 288 292 283 279 290 293 286 301 324 315 304 297
341 326 323 337 58 167 173 266 189 230 125 111 124 145 165 192 129 123 187 215 265 244 229 270 263 276 290 335 266 306 275 277 275 271 269 276 278 295 310 332 317 320 303 313 337
348 358 24 108 130 149 194 203 224 280 173 107 103 169 185 157 199 237 191 201 229 224 239 241 239 240 251 259 210 249 269 275 271 240 263 0 302 282 320 358 325 319 327 325 322
1 35 69 118 136 106 206 238 253 67 26 31 266 158 176 162 106 322 238 231 216 262 279 282 273 184 148 255 285 266 301 276 287 286 306 315 265 270 339 218 337 336 332 335 332
12 46 37 96 100 27 251 243 20 25 347 316 257 236 171 159 259 314 264 292 307 218 242 257 247 115 179 222 266 160 246 357 293 271 261 257 250 264 97 204 329 332 332 334 327
359 31 13 75 9 336 255 357 139 37 324 281 276 302 242 191 238 183 237 297 296 263 245 251 270 172 132 220 209 267 66 242 222 281 284 297 305 291 309 353 329 329 335 326 324
25 257 354 318 348 266 289 52 193 30 357 318 314 286 254 236 230 207 230 223 232 232 246 257 244 168 206 211 257 181 221 219 280 243 281 298 293 53 312 299 295 298 327 314 318
8 239 354 358 255 301 304 353 347 290 307 288 272 277 286 279 255 247 242 245 274 294 250 230 274 265 265 75 297 277 268 240 225 239 228 281 284 327 346 334 289 296 315 312 310
346 319 352 33 302 320 338 282 297 310 320 311 294 288 265 267 278 247 237 237 228 229 254 192 240 253 217 196 206 239 218 243 231 257 260 271 271 296 278 311 312 312 306 304 306
348 303 39 52 56 343 340 291 276 306 294 296 290 271 267 256 244 264 243 197 214 240 351 268 254 253 263 316 163 239 240 238 239 244 266 261 279 290 297 307 319 311 309 301 302
20 57 15 346 24 344 304 304 292 304 322 323 281 282 314 266 269 244 238 242 251 231 261 273 251 250 262 272 278 268 261 259 249 256 261 278 287 297 298 319 305 301 297 302 303
355 348 328 331 327 332 293 345 314 341 284 280 278 312 316 279 288 301 295 247 248 267 233 226 264 268 270 266 263 269 267 262 262 265 267 274 280 278 293 300 303 309 308 302 300
339 83 326 130 349 302 340 348 314 330 285 276 328 331 295 284 287 279 278 261 266 275 276 247 247 240 267 268 287 269 264 263 274 273 274 273 296 319 303 318 310 305 302 299 299